sat.trackr.live / text

‹ back to catalog

STARLINK-5113

NORAD 53988 · 2022-125AA

PAYLOAD ACTIVE UNKNOWN

§ Identity

Operator
Country
US
Launch date
2022-10-05
Launch site
AFWTR
Launch vehicle
Mass (kg)
RCS (m²)

Purposes: comms

External: N2YO · Heavens-Above · Gunter

§ Orbital elements

Epoch: 2026-09-20T16:28:51.627360Z

Period
93.85 min
Inclination
53.1619°
Eccentricity
0.0001078
Mean motion
15.34390912 rev/d
Perigee alt
462.0 km
Apogee alt
463.5 km
Semi-major
6,840.9 km
B*
1.9268e-5
RAAN
50.8517°
Arg perigee
87.3758°
Mean anomaly
272.7368°
Rev number
21,899

§ Raw data

STARLINK-51131 53988U 22125AA  26263.68670865  .00000275  00000+0  19268-4 0  99932 53988  53.1619  50.8517 0001078  87.3758 272.7368 15.34390912218991

JSON: /api/v1/satellites/53988 · /tle

For live sub-satellite position, see the globe view (requires WebGL).

§ Visibility from observer

Set your observer location to see the next 7 days of passes ≥ 10°. The values pass through the URL so the page stays shareable.

No JS? Fill the form by hand. The geolocation button needs JavaScript.